|
ตารางข้อมูล |
ค้นข้อมูล1 |
ค้นข้อมูล2 |
ค่าสูงสุด-ต่ำสุด |
Select Sensor -->| 20402 | 4529A | 4529C | 4529D | 89M1A | 89M1B | หน้าจอย่อ | 4529 |
ข้อมูลรวม (ยังไม่ได้เลือก Sensor)
| ID | Date Time | Room | Temp | Humidity | RSSI | Time |
|---|
| 1156219 | 2026-09-06 16:51:25 | 4529D | 31.2 °C | 69.9 % | | 16:51 |
| 1156218 | 2026-09-06 16:51:05 | 89M1B | 36.5 °C | 52.9 % | | 16:51 |
| 1156217 | 2026-09-06 16:49:17 | 89M1A | 36.9 °C | 45.9 % | | 16:49 |
| 1156216 | 2026-09-06 16:47:27 | 4529C | 32.5 °C | 58.4 % | | 16:47 |
| 1156215 | 2026-09-06 16:46:50 | 4529A | 31.1 °C | 63.6 % | | 16:46 |
| 1156214 | 2026-09-06 16:44:37 | 20402 | 30.8 °C | 48.7 % | | 16:44 |
| 1156213 | 2026-09-06 16:41:52 | 4529D | 31.3 °C | 70.0 % | | 16:41 |
| 1156212 | 2026-09-06 16:41:26 | 89M1B | 36.5 °C | 54.2 % | | 16:41 |
| 1156211 | 2026-09-06 16:39:39 | 89M1A | 37.4 °C | 46.1 % | | 16:39 |
| 1156210 | 2026-09-06 16:37:25 | 4529C | 32.4 °C | 58.5 % | | 16:37 |
| 1156209 | 2026-09-06 16:36:37 | 4529A | 32.7 °C | 64.7 % | | 16:36 |
| 1156208 | 2026-09-06 16:34:34 | 20402 | 30.8 °C | 48.2 % | | 16:34 |
| 1156207 | 2026-09-06 16:32:19 | 4529D | 31.2 °C | 70.0 % | | 16:32 |
| 1156206 | 2026-09-06 16:31:47 | 89M1B | 36.4 °C | 52.4 % | | 16:31 |
| 1156205 | 2026-09-06 16:30:03 | 89M1A | 37.5 °C | 45.7 % | | 16:30 |
| 1156204 | 2026-09-06 16:27:23 | 4529C | 32.4 °C | 58.7 % | | 16:27 |
| 1156203 | 2026-09-06 16:26:25 | 4529A | 32.7 °C | 64.9 % | | 16:26 |
| 1156202 | 2026-09-06 16:24:32 | 20402 | 30.8 °C | 47.6 % | | 16:24 |
| 1156201 | 2026-09-06 16:22:46 | 4529D | 31.2 °C | 70.0 % | | 16:22 |
| 1156200 | 2026-09-06 16:22:08 | 89M1B | 36.4 °C | 53.4 % | | 16:22 |
| 1156199 | 2026-09-06 16:20:26 | 89M1A | 37.9 °C | 44.1 % | | 16:20 |
| 1156198 | 2026-09-06 16:17:20 | 4529C | 32.4 °C | 58.7 % | | 16:17 |
| 1156197 | 2026-09-06 16:16:11 | 4529A | 32.6 °C | 64.8 % | | 16:16 |
| 1156196 | 2026-09-06 16:14:29 | 20402 | 30.7 °C | 46.9 % | | 16:14 |
| 1156195 | 2026-09-06 16:13:14 | 4529D | 31.1 °C | 70.1 % | | 16:13 |
| 1156194 | 2026-09-06 16:12:29 | 89M1B | 36.4 °C | 55.2 % | | 16:12 |
| 1156193 | 2026-09-06 16:10:49 | 89M1A | 37.9 °C | 44.2 % | | 16:10 |
| 1156192 | 2026-09-06 16:07:18 | 4529C | 32.3 °C | 58.8 % | | 16:07 |
| 1156191 | 2026-09-06 16:05:59 | 4529A | 32.5 °C | 65.2 % | | 16:05 |
| 1156190 | 2026-09-06 16:04:27 | 20402 | 30.6 °C | 46.4 % | | 16:04 |
| 1156189 | 2026-09-06 16:03:41 | 4529D | 31.1 °C | 70.1 % | | 16:03 |
| 1156188 | 2026-09-06 16:02:50 | 89M1B | 36.2 °C | 57.0 % | | 16:02 |
| 1156187 | 2026-09-06 16:01:11 | 89M1A | 38.0 °C | 44.9 % | | 16:01 |
| 1156186 | 2026-09-06 15:57:15 | 4529C | 32.3 °C | 58.5 % | | 15:57 |
| 1156185 | 2026-09-06 15:55:48 | 4529A | 32.4 °C | 65.0 % | | 15:55 |
| 1156184 | 2026-09-06 15:54:24 | 20402 | 30.6 °C | 45.8 % | | 15:54 |
| 1156183 | 2026-09-06 15:54:08 | 4529D | 31.1 °C | 70.2 % | | 15:54 |
| 1156182 | 2026-09-06 15:53:12 | 89M1B | 36.2 °C | 56.2 % | | 15:53 |
| 1156181 | 2026-09-06 15:51:35 | 89M1A | 38.4 °C | 44.7 % | | 15:51 |
| 1156180 | 2026-09-06 15:47:13 | 4529C | 32.3 °C | 58.6 % | | 15:47 |
| 1156179 | 2026-09-06 15:45:36 | 4529A | 32.3 °C | 65.2 % | | 15:45 |
| 1156178 | 2026-09-06 15:44:35 | 4529D | 31.0 °C | 70.3 % | | 15:44 |
| 1156177 | 2026-09-06 15:44:21 | 20402 | 30.5 °C | 44.9 % | | 15:44 |
| 1156176 | 2026-09-06 15:43:33 | 89M1B | 36.2 °C | 56.3 % | | 15:43 |
| 1156175 | 2026-09-06 15:41:57 | 89M1A | 38.1 °C | 44.7 % | | 15:41 |
| 1156174 | 2026-09-06 15:37:11 | 4529C | 32.2 °C | 58.2 % | | 15:37 |
| 1156173 | 2026-09-06 15:35:26 | 4529A | 32.3 °C | 65.3 % | | 15:35 |
| 1156172 | 2026-09-06 15:35:03 | 4529D | 31.0 °C | 70.3 % | | 15:35 |
| 1156171 | 2026-09-06 15:34:19 | 20402 | 30.4 °C | 44.1 % | | 15:34 |
| 1156170 | 2026-09-06 15:33:54 | 89M1B | 36.0 °C | 56.4 % | | 15:33 |
| 1156169 | 2026-09-06 15:32:21 | 89M1A | 38.4 °C | 43.8 % | | 15:32 |
| 1156168 | 2026-09-06 15:27:08 | 4529C | 32.2 °C | 58.4 % | | 15:27 |
| 1156167 | 2026-09-06 15:25:30 | 4529D | 31.0 °C | 70.4 % | | 15:25 |
| 1156166 | 2026-09-06 15:25:15 | 4529A | 32.1 °C | 65.6 % | | 15:25 |
| 1156165 | 2026-09-06 15:24:16 | 20402 | 30.4 °C | 43.3 % | | 15:24 |
| 1156164 | 2026-09-06 15:24:15 | 89M1B | 35.9 °C | 55.3 % | | 15:24 |
| 1156163 | 2026-09-06 15:22:44 | 89M1A | 38.6 °C | 45.9 % | | 15:22 |
| 1156162 | 2026-09-06 15:17:06 | 4529C | 32.1 °C | 58.2 % | | 15:17 |
| 1156161 | 2026-09-06 15:15:57 | 4529D | 30.9 °C | 70.4 % | | 15:15 |
| 1156160 | 2026-09-06 15:15:05 | 4529A | 32.0 °C | 65.8 % | | 15:15 |
| 1156159 | 2026-09-06 15:14:36 | 89M1B | 35.9 °C | 54.6 % | | 15:14 |
| 1156158 | 2026-09-06 15:14:14 | 20402 | 30.3 °C | 42.5 % | | 15:14 |
| 1156157 | 2026-09-06 15:13:05 | 89M1A | 38.6 °C | 45.8 % | | 15:13 |
| 1156156 | 2026-09-06 15:07:03 | 4529C | 32.1 °C | 58.4 % | | 15:07 |
| 1156155 | 2026-09-06 15:06:24 | 4529D | 30.9 °C | 70.6 % | | 15:06 |
| 1156154 | 2026-09-06 15:04:57 | 89M1B | 35.8 °C | 56.4 % | | 15:04 |
| 1156153 | 2026-09-06 15:04:54 | 4529A | 32.0 °C | 65.7 % | | 15:04 |
| 1156152 | 2026-09-06 15:04:11 | 20402 | 30.2 °C | 42.0 % | | 15:04 |
| 1156151 | 2026-09-06 15:03:27 | 89M1A | 38.6 °C | 45.2 % | | 15:03 |
| 1156150 | 2026-09-06 14:57:01 | 4529C | 32.0 °C | 58.1 % | | 14:57 |
| 1156149 | 2026-09-06 14:56:52 | 4529D | 30.8 °C | 70.6 % | | 14:56 |
| 1156148 | 2026-09-06 14:55:19 | 89M1B | 35.6 °C | 57.4 % | | 14:55 |
| 1156147 | 2026-09-06 14:54:41 | 4529A | 31.7 °C | 66.5 % | | 14:54 |
| 1156146 | 2026-09-06 14:54:09 | 20402 | 30.0 °C | 41.3 % | | 14:54 |
| 1156145 | 2026-09-06 14:53:48 | 89M1A | 37.9 °C | 46.3 % | | 14:53 |
| 1156144 | 2026-09-06 14:47:18 | 4529D | 30.8 °C | 70.8 % | | 14:47 |
| 1156143 | 2026-09-06 14:46:58 | 4529C | 32.0 °C | 58.2 % | | 14:46 |
| 1156142 | 2026-09-06 14:45:39 | 89M1B | 35.5 °C | 56.5 % | | 14:45 |
| 1156141 | 2026-09-06 14:44:29 | 4529A | 31.5 °C | 67.0 % | | 14:44 |
| 1156140 | 2026-09-06 14:44:12 | 89M1A | 38.4 °C | 46.5 % | | 14:44 |
| 1156139 | 2026-09-06 14:44:06 | 20402 | 29.8 °C | 40.6 % | | 14:44 |
| 1156138 | 2026-09-06 14:37:45 | 4529D | 30.7 °C | 70.8 % | | 14:37 |
| 1156137 | 2026-09-06 14:36:56 | 4529C | 31.9 °C | 58.4 % | | 14:36 |
| 1156136 | 2026-09-06 14:36:00 | 89M1B | 35.4 °C | 54.7 % | | 14:36 |
| 1156135 | 2026-09-06 14:34:35 | 89M1A | 38.5 °C | 46.2 % | | 14:34 |
| 1156134 | 2026-09-06 14:34:17 | 4529A | 31.4 °C | 67.4 % | | 14:34 |
| 1156133 | 2026-09-06 14:34:04 | 20402 | 29.6 °C | 40.1 % | | 14:34 |
| 1156132 | 2026-09-06 14:28:13 | 4529D | 30.7 °C | 71.0 % | | 14:28 |
| 1156131 | 2026-09-06 14:26:54 | 4529C | 31.8 °C | 58.1 % | | 14:26 |
| 1156130 | 2026-09-06 14:26:21 | 89M1B | 35.4 °C | 54.1 % | | 14:26 |
| 1156129 | 2026-09-06 14:24:58 | 89M1A | 38.6 °C | 45.4 % | | 14:24 |
| 1156128 | 2026-09-06 14:24:06 | 4529A | 31.2 °C | 67.8 % | | 14:24 |
| 1156127 | 2026-09-06 14:24:01 | 20402 | 29.3 °C | 40.3 % | | 14:24 |
| 1156126 | 2026-09-06 14:18:40 | 4529D | 30.7 °C | 71.0 % | | 14:18 |
| 1156125 | 2026-09-06 14:16:51 | 4529C | 31.8 °C | 57.9 % | | 14:16 |
| 1156124 | 2026-09-06 14:16:42 | 89M1B | 35.1 °C | 54.2 % | | 14:16 |
| 1156123 | 2026-09-06 14:15:20 | 89M1A | 38.8 °C | 45.0 % | | 14:15 |
| 1156122 | 2026-09-06 14:13:58 | 20402 | 28.1 °C | 41.9 % | | 14:13 |
| 1156121 | 2026-09-06 14:13:54 | 4529A | 31.2 °C | 68.0 % | | 14:13 |
| 1156120 | 2026-09-06 14:09:07 | 4529D | 30.6 °C | 69.9 % | | 14:09 |
| 1156119 | 2026-09-06 14:07:03 | 89M1B | 34.9 °C | 54.5 % | | 14:07 |
| 1156118 | 2026-09-06 14:06:49 | 4529C | 31.8 °C | 58.1 % | | 14:06 |
| 1156117 | 2026-09-06 14:05:42 | 89M1A | 38.7 °C | 44.8 % | | 14:05 |
| 1156116 | 2026-09-06 14:03:56 | 20402 | 27.9 °C | 42.5 % | | 14:03 |
| 1156115 | 2026-09-06 14:03:39 | 4529A | 30.9 °C | 67.5 % | | 14:03 |
| 1156114 | 2026-09-06 13:59:34 | 4529D | 30.5 °C | 69.6 % | | 13:59 |
| 1156113 | 2026-09-06 13:57:24 | 89M1B | 34.8 °C | 54.8 % | | 13:57 |
| 1156112 | 2026-09-06 13:56:46 | 4529C | 31.8 °C | 57.9 % | | 13:56 |
| 1156111 | 2026-09-06 13:56:04 | 89M1A | 38.5 °C | 44.0 % | | 13:56 |
| 1156110 | 2026-09-06 13:53:53 | 20402 | 28.2 °C | 43.7 % | | 13:53 |
| 1156109 | 2026-09-06 13:53:25 | 4529A | 29.8 °C | 66.8 % | | 13:53 |
| 1156108 | 2026-09-06 13:50:02 | 4529D | 30.5 °C | 69.5 % | | 13:50 |
| 1156107 | 2026-09-06 13:47:45 | 89M1B | 34.8 °C | 55.9 % | | 13:47 |
| 1156106 | 2026-09-06 13:46:44 | 4529C | 31.8 °C | 58.0 % | | 13:46 |
| 1156105 | 2026-09-06 13:46:27 | 89M1A | 38.7 °C | 45.5 % | | 13:46 |
| 1156104 | 2026-09-06 13:43:51 | 20402 | 28.7 °C | 45.4 % | | 13:43 |
| 1156103 | 2026-09-06 13:43:14 | 4529A | 29.9 °C | 67.1 % | | 13:43 |
| 1156102 | 2026-09-06 13:40:29 | 4529D | 30.5 °C | 69.6 % | | 13:40 |
| 1156101 | 2026-09-06 13:38:07 | 89M1B | 34.6 °C | 57.7 % | | 13:38 |
| 1156100 | 2026-09-06 13:36:48 | 89M1A | 38.0 °C | 47.7 % | | 13:36 |
| 1156099 | 2026-09-06 13:36:42 | 4529C | 31.7 °C | 57.9 % | | 13:36 |
| 1156098 | 2026-09-06 13:33:48 | 20402 | 29.4 °C | 47.8 % | | 13:33 |
| 1156097 | 2026-09-06 13:33:03 | 4529A | 30.1 °C | 65.9 % | | 13:33 |
| 1156096 | 2026-09-06 13:30:57 | 4529D | 30.4 °C | 69.6 % | | 13:30 |
| 1156095 | 2026-09-06 13:28:28 | 89M1B | 34.5 °C | 58.4 % | | 13:28 |
| 1156094 | 2026-09-06 13:27:09 | 89M1A | 37.6 °C | 49.3 % | | 13:27 |
| 1156093 | 2026-09-06 13:26:39 | 4529C | 31.6 °C | 57.7 % | | 13:26 |
| 1156092 | 2026-09-06 13:23:46 | 20402 | 30.8 °C | 50.3 % | | 13:23 |
| 1156091 | 2026-09-06 13:22:51 | 4529A | 29.7 °C | 65.1 % | | 13:22 |
| 1156090 | 2026-09-06 13:21:24 | 4529D | 30.4 °C | 69.7 % | | 13:21 |
| 1156089 | 2026-09-06 13:18:49 | 89M1B | 34.4 °C | 60.2 % | | 13:18 |
| 1156088 | 2026-09-06 13:17:31 | 89M1A | 37.4 °C | 51.0 % | | 13:17 |
| 1156087 | 2026-09-06 13:16:37 | 4529C | 31.5 °C | 57.5 % | | 13:16 |
| 1156086 | 2026-09-06 13:13:43 | 20402 | 30.7 °C | 48.3 % | | 13:13 |
| 1156085 | 2026-09-06 13:12:42 | 4529A | 30.0 °C | 66.6 % | | 13:12 |
| 1156084 | 2026-09-06 13:11:51 | 4529D | 30.3 °C | 69.7 % | | 13:11 |
| 1156083 | 2026-09-06 13:09:10 | 89M1B | 34.4 °C | 60.7 % | | 13:09 |
| 1156082 | 2026-09-06 13:07:54 | 89M1A | 36.8 °C | 52.5 % | | 13:07 |
| 1156081 | 2026-09-06 13:06:34 | 4529C | 31.5 °C | 57.5 % | | 13:06 |
| 1156080 | 2026-09-06 13:03:40 | 20402 | 30.7 °C | 48.2 % | | 13:03 |
| 1156079 | 2026-09-06 13:02:35 | 4529A | 29.7 °C | 62.3 % | | 13:02 |
| 1156078 | 2026-09-06 13:02:18 | 4529D | 30.3 °C | 69.9 % | | 13:02 |
| 1156077 | 2026-09-06 12:59:31 | 89M1B | 34.1 °C | 61.0 % | | 12:59 |
| 1156076 | 2026-09-06 12:58:17 | 89M1A | 37.2 °C | 51.4 % | | 12:58 |
Data every 20 minute.